| time (UTC) | temp F | wind direction | speed knots | gust knots | rain 1hr in | rain 24hr in | rain mn in | humidity % | barometer mb |
| 20260502163636 | 59 | 8 | 1.7 | 3.5 | 0.00 | 0.00 | 0.00 | 56 | 1012.4 |
| 20260502162137 | 60 | 11 | 2.6 | 3.5 | 0.00 | 0.00 | 0.00 | 55 | 1012.4 |
| 20260502160636 | 59 | 15 | 0.9 | 2.6 | 0.00 | 0.00 | 0.00 | 57 | 1012.3 |
| 20260502130637 | 63 | 0 | 0.0 | 2.6 | 0.00 | 0.00 | 0.00 | 52 | 1012.4 |
| 20260502123635 | 63 | 264 | 0.0 | 0.0 | 0.00 | 0.00 | 0.00 | 49 | 1012.6 |
| 20260502122137 | 64 | 250 | 0.0 | 0.0 | 0.00 | 0.00 | 0.00 | 48 | 1011.9 |
| 20260502120637 | 65 | 250 | 0.0 | 0.0 | 0.00 | 0.00 | 0.00 | 47 | 1011.8 |
| 20260502115137 | 65 | 250 | 0.0 | 0.0 | 0.00 | 0.00 | 0.00 | 45 | 1011.6 |
| 20260502113637 | 66 | 250 | 0.0 | 0.0 | 0.00 | 0.00 | 0.00 | 43 | 1011.4 |
| 20260502112136 | 66 | 250 | 0.0 | 0.0 | 0.00 | 0.00 | 0.00 | 41 | 1011.1 |
| 20260502110636 | 67 | 250 | 0.0 | 0.0 | 0.00 | 0.00 | 0.00 | 40 | 1010.7 |
| 20260502103637 | 69 | 250 | 0.0 | 0.0 | 0.00 | 0.00 | 0.00 | 35 | 1010.4 |
| 20260502102137 | 69 | 250 | 0.0 | 0.0 | 0.00 | 0.00 | 0.00 | 33 | 1010.2 |
| 20260502090636 | 74 | 236 | 2.6 | 4.3 | 0.00 | 0.00 | 0.00 | 24 | 1009.4 |
| 20260502065136 | 77 | 207 | 0.9 | 2.6 | 0.00 | 0.00 | 0.00 | 27 | 1007.6 |
| 20260502062137 | 77 | 227 | 2.6 | 4.3 | 0.00 | 0.00 | 0.00 | 28 | 1007.2 |
| 20260502055137 | 78 | 169 | 4.3 | 8.7 | 0.00 | 0.00 | 0.00 | 26 | 1007.0 |
| 20260502053636 | 78 | 186 | 6.1 | 8.7 | 0.00 | 0.00 | 0.00 | 25 | 1006.8 |
| 20260502052136 | 78 | 240 | 7.8 | 10.4 | 0.00 | 0.00 | 0.00 | 25 | 1006.8 |
| 20260502050636 | 77 | 219 | 6.1 | 10.4 | 0.00 | 0.00 | 0.00 | 29 | 1006.8 |
| 20260502045136 | 78 | 198 | 7.0 | 11.3 | 0.00 | 0.00 | 0.00 | 30 | 1006.4 |
| 20260502042136 | 78 | 232 | 6.1 | 7.8 | 0.00 | 0.00 | 0.00 | 34 | 1006.2 |
| 20260502040636 | 78 | 180 | 5.2 | 7.8 | 0.00 | 0.00 | 0.00 | 35 | 1006.2 |
| 20260502035136 | 78 | 223 | 3.5 | 8.7 | 0.00 | 0.01 | 0.00 | 32 | 1006.3 |
| 20260502033637 | 78 | 224 | 7.0 | 12.2 | 0.00 | 0.03 | 0.00 | 34 | 1006.1 |
| 20260502030636 | 80 | 194 | 5.2 | 8.7 | 0.00 | 0.05 | 0.00 | 25 | 1005.6 |
| 20260502025136 | 80 | 234 | 5.2 | 11.3 | 0.00 | 0.05 | 0.00 | 32 | 1005.6 |
| 20260502023636 | 81 | 164 | 6.1 | 8.7 | 0.00 | 0.07 | 0.00 | 29 | 1005.3 |
| 20260502022136 | 81 | 149 | 1.7 | 2.6 | 0.00 | 0.12 | 0.00 | 27 | 1005.1 |
| 20260502015137 | 78 | 141 | 3.5 | 5.2 | 0.00 | 0.13 | 0.00 | 30 | 1005.0 |
| 20260502013637 | 78 | 147 | 3.5 | 7.0 | 0.00 | 0.13 | 0.00 | 30 | 1004.7 |
| 20260502012136 | 79 | 175 | 3.5 | 3.5 | 0.00 | 0.24 | 0.00 | 31 | 1004.6 |
| 20260502005136 | 77 | 154 | 1.7 | 1.7 | 0.00 | 0.26 | 0.00 | 33 | 1004.3 |
| 20260502003637 | 77 | 227 | 3.5 | 5.2 | 0.00 | 0.28 | 0.00 | 34 | 1004.4 |
| 20260502000636 | 75 | 225 | 2.6 | 4.3 | 0.00 | 0.39 | 0.00 | 39 | 1004.3 |
| 20260501235139 | 73 | 233 | 4.3 | 6.1 | 0.00 | 0.43 | 0.00 | 41 | 1004.2 |
| 20260501233636 | 72 | 204 | 2.6 | 5.2 | 0.00 | 0.46 | 0.00 | 46 | 1004.2 |
| 20260501225136 | 70 | 214 | 2.6 | 3.5 | 0.00 | 0.56 | 0.00 | 47 | 1003.8 |
| 20260501223636 | 69 | 250 | 3.5 | 7.0 | 0.00 | 0.59 | 0.00 | 48 | 1003.6 |
| 20260501220636 | 64 | 221 | 0.0 | 0.0 | 0.00 | 0.61 | 0.00 | 53 | 1003.1 |
| 20260501215138 | 62 | 229 | 0.0 | 0.0 | 0.00 | 0.65 | 0.00 | 55 | 1003.1 |
| 20260501210636 | 57 | 13 | 0.0 | 0.0 | 0.00 | 0.76 | 0.00 | 62 | 1001.4 |
| 20260501205138 | 55 | 47 | 0.9 | 1.7 | 0.00 | 0.76 | 0.00 | 64 | 1001.0 |
| 20260501202137 | 53 | 31 | 1.7 | 3.5 | 0.00 | 0.76 | 0.00 | 65 | 1000.4 |
| 20260501200637 | 52 | 4 | 0.9 | 2.6 | 0.00 | 0.78 | 0.00 | 67 | 1000.4 |
| 20260501195137 | 52 | 13 | 0.0 | 0.0 | 0.00 | 0.81 | 0.00 | 66 | 999.8 |
| 20260501193637 | 52 | 38 | 1.7 | 1.7 | 0.00 | 0.86 | 0.00 | 66 | 999.2 |
| 20260501190636 | 54 | 240 | 0.0 | 0.0 | 0.00 | 0.92 | 0.00 | 63 | 998.8 |
| 20260501185136 | 55 | 238 | 1.7 | 2.6 | 0.00 | 0.95 | 0.00 | 63 | 998.2 |
| 20260501183637 | 55 | 186 | 1.7 | 2.6 | 0.00 | 0.98 | 0.00 | 63 | 997.7 |
| 20260501182136 | 56 | 230 | 2.6 | 4.3 | 0.00 | 0.98 | 0.00 | 61 | 997.3 |
| 20260501180638 | 56 | 263 | 4.3 | 6.1 | 0.00 | 0.99 | 0.00 | 60 | 996.9 |
| 20260501175138 | 57 | 265 | 6.1 | 7.8 | 0.00 | 1.00 | 0.00 | 59 | 996.5 |
| 20260501172137 | 57 | 260 | 9.6 | 16.5 | 0.00 | 1.02 | 0.00 | 59 | 996.2 |